2017-008CZ

Last updated on Fri Mar 10 2017 00:15:03 GMT+0000 (Coordinated Universal Time)

1 42043U 17008CZ 17068.69464633 .00004814 00000-0 21542-3 0 9996 2 42043 97.5081 130.2943 0008828 178.2030 181.9251 15.21733946 2587
UTC large
Height (km)
Speed (km/s)
/
Latitude / Longitude
Inclination (degrees)
Orbital Period (minutes)
Azimuth
Elevation
Range (km)
Doppler Factor

Next 0 passes for location: London (51.5072 / 0.1276)

Sorry there are no passes over London.